H1 CPF  1  NER 2019  3 30  9  5891 glonass126           
H2  1105501 9126    37829 2019  3 30  0  0  0 2019  4  2 23 45  0   900 1 1  0 0 0
H9
10 0 58573  41400.00000  0   6708706.721   9183749.368 -22812266.929
10 0 58573  42300.00000  0   4058372.466  10182185.762 -23014212.476
10 0 58573  43200.00000  0   1490050.581  11369032.474 -22768344.896
10 0 58573  44100.00000  0   -934655.616  12711477.707 -22079516.899
10 0 58573  45000.00000  0  -3161306.690  14166734.401 -20961205.591
10 0 58573  45900.00000  0  -5144652.170  15683766.789 -19435243.973
10 0 58573  46800.00000  0  -6850263.733  17205381.973 -17531389.444
10 0 58573  47700.00000  0  -8255709.593  18670598.512 -15286738.045
10 0 58573  48600.00000  0  -9351222.705  20017192.342 -12744996.172
10 0 58573  49500.00000  0 -10139836.681  21184312.914  -9955624.207
10 0 58573  50400.00000  0 -10636985.643  22115059.436  -6972869.144
10 0 58573  51300.00000  0 -10869586.879  22758908.841  -3854705.381
10 0 58573  52200.00000  0 -10874646.820  23073893.451   -661704.665
10 0 58573  53100.00000  0 -10697450.755  23028436.853   2544142.378
10 0 58573  54000.00000  0 -10389414.180  22602771.053   5700629.916
10 0 58573  54900.00000  0 -10005687.523  21789875.654   8746542.218
10 0 58573  55800.00000  0  -9602616.179  20595899.902  11622837.061
10 0 58573  56700.00000  0  -9235163.457  19040050.198  14273784.509
10 0 58573  57600.00000  0  -8954405.239  17153947.870  16648039.423
10 0 58573  58500.00000  0  -8805201.812  14980484.084  18699627.526
10 0 58573  59400.00000  0  -8824144.567  12572219.358  20388826.815
10 0 58573  60300.00000  0  -9037863.622   9989393.794  21682928.262
10 0 58573  61200.00000  0  -9461767.155   7297630.028  22556862.027
10 0 58573  62100.00000  0 -10099265.320   4565423.174  22993678.013
10 0 58573  63000.00000  0 -10941511.501   1861520.597  22984872.155
10 0 58573  63900.00000  0 -11967672.303   -747701.170  22530552.499
10 0 58573  64800.00000  0 -13145715.863  -3200755.132  21639441.924
10 0 58573  65700.00000  0 -14433686.694  -5443355.112  20328717.060
10 0 58573  66600.00000  0 -15781415.044  -7430424.850  18623685.813
10 0 58573  67500.00000  0 -17132590.605  -9127722.476  16557308.721
10 0 58573  68400.00000  0 -18427115.015 -10513013.541  14169572.182
10 0 58573  69300.00000  0 -19603635.557 -11576744.091  11506724.458
10 0 58573  70200.00000  0 -20602154.361 -12322185.998   8620388.101
10 0 58573  71100.00000  0 -21366603.750 -12765048.574   5566564.978
10 0 58573  72000.00000  0 -21847279.073 -12932572.791   2404552.646
10 0 58573  72900.00000  0 -22003025.899 -12862146.351   -804207.174
10 0 58573  73800.00000  0 -21803088.285 -12599498.161  -3997325.608
10 0 58573  74700.00000  0 -21228538.776 -12196548.817  -7112685.223
10 0 58573  75600.00000  0 -20273228.335 -11709008.567 -10089655.853
10 0 58573  76500.00000  0 -18944214.540 -11193825.137 -12870283.022
10 0 58573  77400.00000  0 -17261648.607 -10706590.394 -15400424.813
10 0 58573  78300.00000  0 -15258124.723 -10299016.664 -17630814.096
10 0 58573  79200.00000  0 -12977518.014 -10016590.553 -19518024.719
10 0 58573  80100.00000  0 -10473359.269  -9896504.509 -21025322.170
10 0 58573  81000.00000  0  -7806814.032  -9965954.410 -22123381.895
10 0 58573  81900.00000  0  -5044350.310 -10240875.788 -22790861.197
10 0 58573  82800.00000  0  -2255192.254 -10725172.494 -23014813.663
10 0 58573  83700.00000  0    491334.088 -11410470.641 -22790938.343
10 0 58573  84600.00000  0   3128452.546 -12276408.299 -22123659.176
10 0 58573  85500.00000  0   5594475.893 -13291448.684 -21026033.482
10 0 58574      0.00000  0   7835127.038 -14414182.443 -19519491.738
10 0 58574    900.00000  0   9805546.370 -15595064.054 -17633413.780
10 0 58574   1800.00000  0  11471903.038 -16778508.699 -15404550.644
10 0 58574   2700.00000  0  12812543.282 -17905261.279 -12876302.785
10 0 58574   3600.00000  0  13818630.906 -18914937.390 -10097869.661
10 0 58574   4500.00000  0  14494253.673 -19748628.905  -7123287.334
10 0 58574   5400.00000  0  14855993.728 -20351464.268  -4010373.271
10 0 58574   6300.00000  0  14931981.869 -20675015.475   -819599.213
10 0 58574   7200.00000  0  14760477.275 -20679450.298   2387085.494
10 0 58574   8100.00000  0  14388034.174 -20335339.199   5547456.910
10 0 58574   9000.00000  0  13867334.027 -19625040.966   8600222.310
10 0 58574   9900.00000  0  13254775.636 -18543608.980  11486205.233
10 0 58574  10800.00000  0  12607925.372 -17099180.150  14149486.980
10 0 58574  11700.00000  0  11982935.230 -15312830.172  16538482.884
10 0 58574  12600.00000  0  11432037.357 -13217901.059  18606933.053
10 0 58574  13500.00000  0  11001220.117 -10858828.634  20314789.314
10 0 58574  14400.00000  0  10728182.909  -8289518.175  21628982.168
10 0 58574  15300.00000  0  10640655.083  -5571334.988  22524053.853
10 0 58574  16200.00000  0  10755149.048  -2770792.203  22982646.257
10 0 58574  17100.00000  0  11076199.631     42969.680  22995834.906
10 0 58574  18000.00000  0  11596121.603   2800808.386  22563302.999
10 0 58574  18900.00000  0  12295295.935   5436203.394  21693352.158
10 0 58574  19800.00000  0  13142973.519   7887770.154  20402749.368
10 0 58574  20700.00000  0  14098563.646  10101561.971  18716412.332
10 0 58574  21600.00000  0  15113354.390  12033065.121  16666938.359
10 0 58574  22500.00000  0  16132593.897  13648805.101  14293984.654
10 0 58574  23400.00000  0  17097846.196  14927497.528  11643510.812
10 0 58574  24300.00000  0  17949523.290  15860696.007   8766896.983
10 0 58574  25200.00000  0  18629487.350  16452909.906   5719953.805
10 0 58574  26100.00000  0  19083613.312  16721187.057   2561842.714
10 0 58574  27000.00000  0  19264203.283  16694178.891   -646072.715
10 0 58574  27900.00000  0  19132149.911  16410727.414  -3841422.042
10 0 58574  28800.00000  0  18658756.056  15918033.773  -6962046.032
10 0 58574  29700.00000  0  17827132.401  15269486.159  -9947213.149
10 0 58574  30600.00000  0  16633112.280  14522239.428 -12738809.918
10 0 58574  31500.00000  0  15085643.545  13734649.531 -15282480.859
10 0 58574  32400.00000  0  13206639.395  12963672.153 -17528694.966
10 0 58574  33300.00000  0  11030293.086  12262336.459 -19433717.130
10 0 58574  34200.00000  0   8601884.297  11677401.580 -20960464.966
10 0 58574  35100.00000  0   5976126.383  11247295.586 -22079234.056
10 0 58574  36000.00000  0   3215123.115  11000424.462 -22768277.388
10 0 58574  36900.00000  0    386019.990  10953922.784 -23014227.771
10 0 58574  37800.00000  0  -2441552.136  11112898.813 -22812355.298
10 0 58574  38700.00000  0  -5198134.789  11470205.707 -22166655.182
10 0 58574  39600.00000  0  -7817090.470  12006748.157 -21089764.630
10 0 58574  40500.00000  0 -10237132.236  12692311.086 -19602710.784
10 0 58574  41400.00000  0 -12404629.579  13486874.929 -17734494.943
10 0 58574  42300.00000  0 -14275595.227  14342361.511 -15521521.542
10 0 58574  43200.00000  0 -15817271.183  15204736.318 -13006883.277
10 0 58574  44100.00000  0 -17009249.118  16016377.983 -10239516.587
10 0 58574  45000.00000  0 -17844079.783  16718614.538  -7273244.343
10 0 58574  45900.00000  0 -18327347.681  17254319.021  -4165724.692
10 0 58574  46800.00000  0 -18477209.699  17570454.586   -977326.902
10 0 58574  47700.00000  0 -18323418.847  17620461.552   2230043.467
10 0 58574  48600.00000  0 -17905875.842  17366385.575   5394146.899
10 0 58574  49500.00000  0 -17272770.985  16780657.236   8453616.226
10 0 58574  50400.00000  0 -16478395.681  15847448.093  11349143.290
10 0 58574  51300.00000  0 -15580716.563  14563546.196  14024623.145
10 0 58574  52200.00000  0 -14638814.737  12938714.166  16428234.045
10 0 58574  53100.00000  0 -13710297.872  10995514.651  18513432.826
10 0 58574  54000.00000  0 -12848793.638   8768609.984  20239847.324
10 0 58574  54900.00000  0 -12101629.159   6303564.542  21574049.527
10 0 58574  55800.00000  0 -11507793.156   3655198.817  22490195.461
10 0 58574  56700.00000  0 -11096265.486    885562.338  22970520.388
10 0 58574  57600.00000  0 -10884783.430  -1938391.796  23005680.479
10 0 58574  58500.00000  0 -10879096.006  -4747335.873  22594934.737
10 0 58574  59400.00000  0 -11072737.385  -7472196.817  21746163.780
10 0 58574  60300.00000  0 -11447329.137 -10046778.374  20475724.746
10 0 58574  61200.00000  0 -11973399.141 -12410268.825  18808144.483
10 0 58574  62100.00000  0 -12611683.580 -14509531.389  16775655.954
10 0 58574  63000.00000  0 -13314858.261 -16301083.018  14417585.618
10 0 58574  63900.00000  0 -14029627.402 -17752679.713  11779602.429
10 0 58574  64800.00000  0 -14699082.730 -18844442.508   8912841.804
10 0 58574  65700.00000  0 -15265233.989 -19569477.117   5872920.506
10 0 58574  66600.00000  0 -15671604.205 -19933961.044   2718860.946
10 0 58574  67500.00000  0 -15865779.799 -19956694.341   -488054.563
10 0 58574  68400.00000  0 -15801807.010 -19668132.736  -3685477.291
10 0 58574  69300.00000  0 -15442332.158 -19108943.775  -6811209.591
10 0 58574  70200.00000  0 -14760393.807 -18328147.075  -9804422.030
10 0 58574  71100.00000  0 -13740789.347 -17380917.511 -12606845.588
10 0 58574  72000.00000  0 -12380956.617 -16326144.726 -15163914.626
10 0 58574  72900.00000  0 -10691331.622 -15223852.728 -17425837.460
10 0 58574  73800.00000  0  -8695165.691 -14132589.350 -19348572.936
10 0 58574  74700.00000  0  -6427808.489 -13106896.538 -20894693.284
10 0 58574  75600.00000  0  -3935485.834 -12194968.845 -22034116.190
10 0 58574  76500.00000  0  -1273622.673 -11436599.293 -22744691.695
10 0 58574  77400.00000  0   1495219.172 -10861499.396 -23012632.573
10 0 58574  78300.00000  0   4303702.848 -10488064.035 -22832780.071
10 0 58574  79200.00000  0   7082279.699 -10322632.833 -22208700.205
10 0 58574  80100.00000  0   9761847.302 -10359278.604 -21152609.067
10 0 58574  81000.00000  0  12276391.892 -10580131.013 -19685129.020
10 0 58574  81900.00000  0  14565505.589 -10956220.950 -17834880.828
99